This is the latest recevied weather packets stored in our database for station/object WB5TZJ. If no packets are shown the sender has not sent any weather packets the latest 10 day(s).
| Time | Temp. | Humidity | Pressure | Rain* | Wind** | Luminosity | Snow |
|---|---|---|---|---|---|---|---|
| 1777875636 | 22.78° C | 44% | 1013.8 hPa | 0 mm | - | - | - |
| 1777875036 | 22.78° C | 43% | 1013.8 hPa | 0 mm | - | - | - |
| 1777874436 | 22.78° C | 47% | 1013.8 hPa | 0 mm | - | - | - |
| 1777873836 | 22.78° C | 46% | 1014.2 hPa | 0 mm | - | - | - |
| 1777873236 | 22.78° C | 45% | 1014.5 hPa | 0 mm | - | - | - |
| 1777872636 | 22.78° C | 44% | 1014.9 hPa | 0 mm | - | - | - |
| 1777872036 | 22.78° C | 44% | 1015.2 hPa | 0 mm | - | - | - |
| 1777871436 | 22.78° C | 43% | 1014.5 hPa | 0 mm | - | - | - |
| 1777870836 | 22.78° C | 45% | 1014.5 hPa | 0 mm | - | - | - |
| 1777870236 | 22.78° C | 41% | 1014.9 hPa | 0 mm | - | - | - |
| 1777869636 | 22.78° C | 44% | 1014.9 hPa | 0 mm | - | - | - |
| 1777869036 | 22.78° C | 45% | 1014.9 hPa | 0 mm | - | - | - |
| 1777868436 | 22.78° C | 41% | 1014.9 hPa | 0 mm | - | - | - |
| 1777867836 | 22.78° C | 44% | 1014.9 hPa | 0 mm | - | - | - |
| 1777867236 | 22.78° C | 46% | 1014.9 hPa | 0 mm | - | - | - |
| 1777866636 | 22.78° C | 45% | 1015.2 hPa | 0 mm | - | - | - |
| 1777866036 | 22.78° C | 45% | 1014.9 hPa | 0 mm | - | - | - |
| 1777865436 | 22.78° C | 47% | 1014.9 hPa | 0 mm | - | - | - |
| 1777864836 | 22.22° C | 46% | 1014.9 hPa | 0 mm | - | - | - |
| 1777864236 | 22.22° C | 44% | 1015.2 hPa | 0 mm | - | - | - |
| 1777863636 | 22.78° C | 44% | 1015.2 hPa | 0 mm | - | - | - |
| 1777863036 | 22.78° C | 44% | 1015.2 hPa | 0 mm | - | - | - |
| 1777862436 | 22.78° C | 44% | 1015.2 hPa | 0 mm | - | - | - |
| 1777861836 | 22.78° C | 45% | 1015.2 hPa | 0 mm | - | - | - |
| 1777861236 | 22.22° C | 47% | 1014.9 hPa | 0 mm | - | - | - |
* Rain latest hour (hover to see other rain measurements)
** Current wind speed in m/s (hover to see current wind gust speed)